Regional Weather Roundup
Issued by NWS

Home | Current Version | Previous Version | Graphics & Text | Print | Product List | Glossary On
Versions: 1 2 3 4 5 6 7 8 9 10 11 12 13 14 15 16 17 18 19 20 21 22 23 24 25 26 27 28 29 30 31 32 33 34 35 36 37 38 39 40 41 42 43 44 45 46 47 48 49 50
000
ASUS43 KLMK 191902
RWRKY
KENTUCKY REGIONAL WEATHER ROUNDUP
NATIONAL WEATHER SERVICE LOUISVILLE KY
300 PM EDT FRI SEP 19 2014

NOTE "FAIR" INDICATES FEW OR NO CLOUDS BELOW 12,000 FEET
WITH NO SIGNIFICANT WEATHER AND/OR OBSTRUCTIONS TO VISIBILITY.

KYZ001>023-026-027-061>063-070>075-192000-
WESTERN AND SOUTH CENTRAL KENTUCKY

CITY           SKY/WX    TMP DP  RH WIND       PRES   REMARKS
PADUCAH        SUNNY     83  58  42 VRB5      30.03F
HENDERSON      SUNNY     79  54  41 E7        30.05F
OWENSBORO      SUNNY     79  56  45 E8        30.06F
HOPKINSVILLE   SUNNY     82  60  47 VRB5      30.04F
BOWLING GREEN  SUNNY     80  58  46 E7        30.06F
GLASGOW        MOSUNNY   80  57  45 E6        30.07F
$$

KYZ024-025-028>034-038-045-046-053-192000-
NORTH CENTRAL KENTUCKY

CITY           SKY/WX    TMP DP  RH WIND       PRES   REMARKS
LOUISVILLE/SDF SUNNY     78  53  41 E9        30.09F
LOUISVILLE/LOU SUNNY     76  52  43 VRB7      30.09F
FORT KNOX      SUNNY     75  56  50 E9        30.08S
$$

KYZ035>037-039>044-047>052-055>060-089>105-192000-
NORTHEAST KENTUCKY

CITY           SKY/WX    TMP DP  RH WIND       PRES   REMARKS
LEXINGTON      SUNNY     76  54  46 E8        30.11F
COVINGTON      MOSUNNY   73  48  41 SE7       30.13F
FRANKFORT      SUNNY     74  52  46 VRB6      30.10F
$$

KYZ054-064>069-076>088-106>120-192000-
SOUTHEAST KENTUCKY

CITY           SKY/WX    TMP DP  RH WIND       PRES   REMARKS
JACKSON        SUNNY     75  59  57 VRB3      30.12F
LONDON         PTSUNNY   78  60  53 CALM      30.10F
SOMERSET       SUNNY     79  54  41 CALM      30.10F
MIDDLESBORO    MOSUNNY   80  60  50 S7        30.10F
MONTICELLO     PTCLDY    81  59  47 S6        30.10F
$$




USA.gov is the U.S. government's official web portal to all federal, state and local government web resources and services.